User: anonymous   Login
Location: Maccacari
(45.1333°N, 11.1333°E)
Time: 06:28:28
(UTC+00:00)
Language:

A-11 Canister half - Orbit

View from above orbital plane
View from above orbital plane
View from above satellite
View from above satellite

Ground track
Ground track

The orbit data is extracted from the following two-line orbital elements,

1 00051U 60009C   21027.40939502 -.00000109  00000-0 -22223-3 0  9991
2 00051  47.2148  14.5570 0104280 109.1220 252.0892 12.18270314691391
Epoch (UTC): 27 January 2021 09:49:31
Eccentricity: 0.0104280
inclination: 47.2148°
perigee height: 1517 km
apogee height: 1683 km
right ascension of ascending node: 14.5570°
argument of perigee: 109.1220°
revolutions per day: 12.18270314
mean anomaly at epoch: 252.0892°
orbit number at epoch: 69139

The dashed part of the orbit path shows where the satellite is in the earth's shadow,  

DLR